29.03.2024;14:09;77,544;
29.03.2024;13:54;77,544;
29.03.2024;13:39;77,545;
29.03.2024;13:24;77,545;
29.03.2024;13:09;77,545;
29.03.2024;12:54;77,545;
29.03.2024;12:39;77,545;
29.03.2024;12:24;77,546;
29.03.2024;12:09;77,546;
29.03.2024;11:54;77,546;
29.03.2024;11:39;77,546;
29.03.2024;11:24;77,547;
29.03.2024;11:09;77,547;
29.03.2024;10:54;77,548;
29.03.2024;10:39;77,548;
29.03.2024;10:24;77,548;
29.03.2024;10:09;77,548;
29.03.2024;09:54;77,548;
29.03.2024;09:39;77,548;
29.03.2024;09:24;77,549;
29.03.2024;09:09;77,549;
29.03.2024;08:54;77,549;
29.03.2024;08:39;77,549;
29.03.2024;08:24;77,549;
29.03.2024;08:09;77,549;
29.03.2024;07:54;77,549;
29.03.2024;07:39;77,549;
29.03.2024;07:24;77,549;
29.03.2024;07:09;77,549;
29.03.2024;06:54;77,549;
29.03.2024;06:39;77,549;
29.03.2024;06:24;77,549;
29.03.2024;06:09;77,549;
29.03.2024;05:54;77,549;
29.03.2024;05:39;77,549;
29.03.2024;05:24;77,549;
29.03.2024;05:09;77,549;
29.03.2024;04:54;77,550;
29.03.2024;04:39;77,550;
29.03.2024;04:24;77,550;
29.03.2024;04:09;77,550;
29.03.2024;03:54;77,550;
29.03.2024;03:39;77,549;
29.03.2024;03:24;77,549;
29.03.2024;03:09;77,549;
29.03.2024;02:54;77,550;
29.03.2024;02:39;77,550;
29.03.2024;02:24;77,550;
29.03.2024;02:09;77,551;
29.03.2024;01:54;77,551;
29.03.2024;01:39;77,551;
29.03.2024;01:24;77,552;
29.03.2024;01:09;77,552;
29.03.2024;00:54;77,552;
29.03.2024;00:39;77,553;
29.03.2024;00:24;77,554;
29.03.2024;00:09;77,554;
28.03.2024;23:54;77,554;
28.03.2024;23:39;77,554;
28.03.2024;23:24;77,555;
28.03.2024;23:09;77,554;
28.03.2024;22:54;77,554;
28.03.2024;22:39;77,554;
28.03.2024;22:24;77,554;
28.03.2024;22:09;77,553;
28.03.2024;21:54;77,553;
28.03.2024;21:39;77,553;
28.03.2024;21:24;77,553;
28.03.2024;21:09;77,554;
28.03.2024;20:54;77,554;
28.03.2024;20:39;77,554;
28.03.2024;20:24;77,554;
28.03.2024;20:09;77,554;
28.03.2024;19:54;77,554;
28.03.2024;19:39;77,555;
28.03.2024;19:24;77,555;
28.03.2024;19:09;77,555;
28.03.2024;18:54;77,555;
28.03.2024;18:39;77,555;
28.03.2024;18:24;77,555;
28.03.2024;18:09;77,556;
28.03.2024;17:54;77,556;
28.03.2024;17:39;77,557;
28.03.2024;17:24;77,557;
28.03.2024;17:09;77,558;
28.03.2024;16:54;77,558;
28.03.2024;16:39;77,558;
28.03.2024;16:24;77,558;
28.03.2024;16:09;77,558;
28.03.2024;15:54;77,559;
28.03.2024;15:39;77,558;
28.03.2024;15:24;77,558;
28.03.2024;15:09;77,558;
28.03.2024;14:54;77,557;
28.03.2024;14:39;77,557;
28.03.2024;14:24;77,557;
28.03.2024;14:09;77,557;
28.03.2024;13:54;77,557;
28.03.2024;13:39;77,557;
28.03.2024;13:24;77,557;
28.03.2024;13:09;77,557;
28.03.2024;12:54;77,557;
28.03.2024;12:39;77,557;
28.03.2024;12:24;77,557;
28.03.2024;12:09;77,557;
28.03.2024;11:54;77,557;
28.03.2024;11:39;77,557;
28.03.2024;11:24;77,557;
28.03.2024;11:09;77,557;
28.03.2024;10:54;77,557;
28.03.2024;10:39;77,557;
28.03.2024;10:24;77,557;
28.03.2024;10:09;77,557;
28.03.2024;09:54;77,557;
28.03.2024;09:39;77,558;
28.03.2024;09:24;77,557;
28.03.2024;09:09;77,557;
28.03.2024;08:54;77,558;
28.03.2024;08:39;77,557;
28.03.2024;08:24;77,557;
28.03.2024;08:09;77,557;
28.03.2024;07:54;77,558;
28.03.2024;07:39;77,558;
28.03.2024;07:24;77,558;
28.03.2024;07:09;77,558;
28.03.2024;06:54;77,558;
28.03.2024;06:39;77,559;
28.03.2024;06:24;77,559;
28.03.2024;06:09;77,559;
28.03.2024;05:54;77,560;
28.03.2024;05:39;77,560;
28.03.2024;05:24;77,560;
28.03.2024;05:09;77,560;
28.03.2024;04:54;77,560;
28.03.2024;04:39;77,560;
28.03.2024;04:24;77,560;
28.03.2024;04:09;77,560;
28.03.2024;03:54;77,560;
28.03.2024;03:39;77,561;
28.03.2024;03:24;77,561;
28.03.2024;03:09;77,561;
28.03.2024;02:54;77,562;
28.03.2024;02:39;77,562;
28.03.2024;02:24;77,562;
28.03.2024;02:09;77,562;
28.03.2024;01:54;77,562;
28.03.2024;01:39;77,562;
28.03.2024;01:24;77,562;
28.03.2024;01:09;77,562;
28.03.2024;00:54;77,563;
28.03.2024;00:39;77,563;
28.03.2024;00:24;77,563;
28.03.2024;00:09;77,563;
27.03.2024;23:54;77,563;
27.03.2024;23:39;77,564;
27.03.2024;23:24;77,564;
27.03.2024;23:09;77,564;
27.03.2024;22:54;77,564;
27.03.2024;22:39;77,564;
27.03.2024;22:24;77,564;
27.03.2024;22:09;77,565;
27.03.2024;21:54;77,565;
27.03.2024;21:39;77,565;
27.03.2024;21:24;77,566;
27.03.2024;21:09;77,566;
27.03.2024;20:54;77,566;
27.03.2024;20:39;77,566;
27.03.2024;20:24;77,565;
27.03.2024;20:09;77,565;
27.03.2024;19:54;77,565;
27.03.2024;19:39;77,565;
27.03.2024;19:24;77,565;
27.03.2024;19:09;77,565;
27.03.2024;18:54;77,565;
27.03.2024;18:39;77,565;
27.03.2024;18:24;77,565;
27.03.2024;18:09;77,565;
27.03.2024;17:54;77,566;
27.03.2024;17:39;77,566;
27.03.2024;17:24;77,566;
27.03.2024;17:09;77,566;
27.03.2024;16:54;77,567;
27.03.2024;16:39;77,567;
27.03.2024;16:24;77,567;
27.03.2024;16:09;77,567;
27.03.2024;15:54;77,567;
27.03.2024;15:39;77,567;
27.03.2024;15:24;77,567;
27.03.2024;15:09;77,568;
27.03.2024;14:54;77,568;
27.03.2024;14:39;77,568;
27.03.2024;14:24;77,568;
27.03.2024;14:09;77,568;
27.03.2024;13:54;77,568;
27.03.2024;13:39;77,568;
27.03.2024;13:24;77,568;
27.03.2024;13:09;77,568;
27.03.2024;12:54;77,568;
27.03.2024;12:39;77,568;
27.03.2024;12:24;77,568;
27.03.2024;12:09;77,568;
27.03.2024;11:54;77,568;
27.03.2024;11:39;77,568;
27.03.2024;11:24;77,568;
27.03.2024;11:09;77,568;
27.03.2024;10:54;77,568;
27.03.2024;10:39;77,568;
27.03.2024;10:24;77,568;
27.03.2024;10:09;77,568;
27.03.2024;09:54;77,568;
27.03.2024;09:39;77,568;
27.03.2024;09:24;77,568;
27.03.2024;09:09;77,568;
27.03.2024;08:54;77,568;
27.03.2024;08:39;77,568;
27.03.2024;08:24;77,568;
27.03.2024;08:09;77,568;
27.03.2024;07:54;77,568;
27.03.2024;07:39;77,568;
27.03.2024;07:24;77,568;
27.03.2024;07:09;77,569;
27.03.2024;06:54;77,569;
27.03.2024;06:39;77,569;
27.03.2024;06:24;77,569;
27.03.2024;06:09;77,569;
27.03.2024;05:54;77,569;
27.03.2024;05:39;77,569;
27.03.2024;05:24;77,569;
27.03.2024;05:09;77,569;
27.03.2024;04:54;77,568;
27.03.2024;04:39;77,568;
27.03.2024;04:24;77,568;
27.03.2024;04:09;77,569;
27.03.2024;03:54;77,569;
27.03.2024;03:39;77,569;
27.03.2024;03:24;77,569;
27.03.2024;03:09;77,569;
27.03.2024;02:54;77,569;
27.03.2024;02:39;77,569;
27.03.2024;02:24;77,569;
27.03.2024;02:08;77,569;
27.03.2024;01:54;77,569;
27.03.2024;01:38;77,569;
27.03.2024;01:23;77,569;
27.03.2024;01:08;77,569;
27.03.2024;00:53;77,569;
27.03.2024;00:38;77,569;
27.03.2024;00:23;77,569;
27.03.2024;00:08;77,569;
26.03.2024;23:53;77,569;
26.03.2024;23:38;77,569;
26.03.2024;23:23;77,570;
26.03.2024;23:08;77,570;
26.03.2024;22:53;77,570;
26.03.2024;22:38;77,570;
26.03.2024;22:23;77,570;
26.03.2024;22:09;77,570;
26.03.2024;21:53;77,570;
26.03.2024;21:38;77,570;
26.03.2024;21:23;77,571;
26.03.2024;21:08;77,571;
26.03.2024;20:53;77,571;
26.03.2024;20:38;77,571;
26.03.2024;20:23;77,571;
26.03.2024;20:08;77,571;
26.03.2024;19:53;77,571;
26.03.2024;19:38;77,571;
26.03.2024;19:23;77,571;
26.03.2024;19:08;77,571;
26.03.2024;18:53;77,571;
26.03.2024;18:38;77,571;
26.03.2024;18:23;77,572;
26.03.2024;18:08;77,572;
26.03.2024;17:53;77,572;
26.03.2024;17:39;77,572;
26.03.2024;17:23;77,573;
26.03.2024;17:08;77,573;
26.03.2024;16:53;77,573;
26.03.2024;16:38;77,573;
26.03.2024;16:23;77,573;
26.03.2024;16:09;77,573;
26.03.2024;15:53;77,573;
26.03.2024;15:38;77,573;
26.03.2024;15:23;77,573;
26.03.2024;15:08;77,573;
26.03.2024;14:53;77,573;
26.03.2024;14:38;77,573;
26.03.2024;14:23;77,573;
26.03.2024;14:08;77,573;
26.03.2024;13:53;77,573;
26.03.2024;13:38;77,573;
26.03.2024;13:23;77,573;
26.03.2024;13:08;77,574;
26.03.2024;12:53;77,574;
26.03.2024;12:38;77,574;
26.03.2024;12:23;77,575;
26.03.2024;12:08;77,575;
26.03.2024;11:53;77,575;
26.03.2024;11:38;77,576;
26.03.2024;11:23;77,577;
26.03.2024;11:08;77,577;
26.03.2024;10:53;77,577;
26.03.2024;10:38;77,577;
26.03.2024;10:23;77,577;
26.03.2024;10:09;77,577;
26.03.2024;09:53;77,577;
26.03.2024;09:38;77,577;
26.03.2024;09:23;77,577;
26.03.2024;09:08;77,578;
26.03.2024;08:53;77,578;
26.03.2024;08:38;77,578;
26.03.2024;08:23;77,578;
26.03.2024;08:08;77,578;
26.03.2024;07:53;77,578;
26.03.2024;07:38;77,578;
26.03.2024;07:23;77,578;
26.03.2024;07:08;77,578;
26.03.2024;06:53;77,578;
26.03.2024;06:38;77,578;
26.03.2024;06:23;77,578;
26.03.2024;06:08;77,579;
26.03.2024;05:53;77,579;
26.03.2024;05:38;77,579;
26.03.2024;05:23;77,579;
26.03.2024;05:08;77,579;
26.03.2024;04:53;77,579;
26.03.2024;04:38;77,580;
26.03.2024;04:23;77,580;
26.03.2024;04:09;77,580;
26.03.2024;03:53;77,580;
26.03.2024;03:38;77,580;
26.03.2024;03:23;77,580;
26.03.2024;03:08;77,580;
26.03.2024;02:53;77,580;
26.03.2024;02:38;77,580;
26.03.2024;02:23;77,580;
26.03.2024;02:08;77,580;
26.03.2024;01:53;77,580;
26.03.2024;01:38;77,580;
26.03.2024;01:23;77,580;
26.03.2024;01:08;77,580;
26.03.2024;00:53;77,580;
26.03.2024;00:38;77,580;
26.03.2024;00:23;77,580;
26.03.2024;00:08;77,580;
25.03.2024;23:53;77,580;
25.03.2024;23:38;77,580;
25.03.2024;23:23;77,580;
25.03.2024;23:08;77,580;
25.03.2024;22:53;77,581;
25.03.2024;22:38;77,581;
25.03.2024;22:23;77,581;
25.03.2024;22:09;77,581;
25.03.2024;21:53;77,581;
25.03.2024;21:38;77,581;
25.03.2024;21:23;77,581;
25.03.2024;21:08;77,582;
25.03.2024;20:53;77,582;
25.03.2024;20:38;77,582;
25.03.2024;20:23;77,582;
25.03.2024;20:08;77,582;
25.03.2024;19:53;77,582;
25.03.2024;19:38;77,582;
25.03.2024;19:23;77,582;
25.03.2024;19:08;77,582;
25.03.2024;18:53;77,582;
25.03.2024;18:38;77,582;
25.03.2024;18:23;77,582;
25.03.2024;18:08;77,582;
25.03.2024;17:53;77,582;
25.03.2024;17:38;77,582;
25.03.2024;17:23;77,582;
25.03.2024;17:08;77,582;
25.03.2024;16:53;77,582;
25.03.2024;16:38;77,583;
25.03.2024;16:23;77,583;
25.03.2024;16:09;77,583;
25.03.2024;15:53;77,583;
25.03.2024;15:38;77,582;
25.03.2024;15:23;77,582;
25.03.2024;15:08;77,582;
25.03.2024;14:53;77,582;
25.03.2024;14:38;77,582;
25.03.2024;14:23;77,582;
25.03.2024;14:08;77,582;
25.03.2024;13:53;77,582;
25.03.2024;13:38;77,582;
25.03.2024;13:23;77,582;
25.03.2024;13:08;77,582;
25.03.2024;12:53;77,582;
25.03.2024;12:38;77,582;
25.03.2024;12:23;77,582;
25.03.2024;12:08;77,582;
25.03.2024;11:53;77,582;
25.03.2024;11:38;77,582;
25.03.2024;11:23;77,582;
25.03.2024;11:08;77,583;
25.03.2024;10:53;77,583;
25.03.2024;10:38;77,583;
25.03.2024;10:23;77,584;
25.03.2024;10:09;77,584;
25.03.2024;09:53;77,583;
25.03.2024;09:38;77,584;
25.03.2024;09:23;77,584;
25.03.2024;09:08;77,584;
25.03.2024;08:53;77,584;
25.03.2024;08:38;77,584;
25.03.2024;08:23;77,584;
25.03.2024;08:08;77,585;
25.03.2024;07:53;77,585;
25.03.2024;07:38;77,586;
25.03.2024;07:23;77,586;
25.03.2024;07:08;77,586;
25.03.2024;06:53;77,586;
25.03.2024;06:38;77,586;
25.03.2024;06:23;77,586;
25.03.2024;06:08;77,586;
25.03.2024;05:53;77,586;
25.03.2024;05:38;77,586;
25.03.2024;05:23;77,586;
25.03.2024;05:08;77,587;
25.03.2024;04:53;77,587;
25.03.2024;04:38;77,587;
25.03.2024;04:23;77,587;
25.03.2024;04:09;77,587;
25.03.2024;03:53;77,587;
25.03.2024;03:38;77,587;
25.03.2024;03:23;77,587;
25.03.2024;03:08;77,588;
25.03.2024;02:53;77,588;
25.03.2024;02:38;77,588;
25.03.2024;02:23;77,588;
25.03.2024;02:08;77,589;
25.03.2024;01:53;77,589;
25.03.2024;01:38;77,589;
25.03.2024;01:23;77,589;
25.03.2024;01:08;77,589;
25.03.2024;00:53;77,589;
25.03.2024;00:38;77,589;
25.03.2024;00:23;77,589;
25.03.2024;00:08;77,589;
24.03.2024;23:53;77,589;
24.03.2024;23:38;77,589;
24.03.2024;23:23;77,589;
24.03.2024;23:08;77,589;
24.03.2024;22:53;77,590;
24.03.2024;22:38;77,591;
24.03.2024;22:23;77,591;
24.03.2024;22:09;77,591;
24.03.2024;21:53;77,591;
24.03.2024;21:38;77,591;
24.03.2024;21:23;77,591;
24.03.2024;21:08;77,591;
24.03.2024;20:53;77,591;
24.03.2024;20:38;77,591;
24.03.2024;20:23;77,591;
24.03.2024;20:08;77,592;
24.03.2024;19:53;77,592;
24.03.2024;19:38;77,592;
24.03.2024;19:23;77,592;
24.03.2024;19:08;77,591;
24.03.2024;18:53;77,591;
24.03.2024;18:38;77,591;
24.03.2024;18:23;77,591;
24.03.2024;18:08;77,591;
24.03.2024;17:53;77,592;
24.03.2024;17:38;77,592;
24.03.2024;17:23;77,592;
24.03.2024;17:08;77,592;
24.03.2024;16:53;77,592;
24.03.2024;16:38;77,593;
24.03.2024;16:23;77,592;
24.03.2024;16:09;77,593;
24.03.2024;15:53;77,592;
24.03.2024;15:38;77,593;
24.03.2024;15:23;77,593;
24.03.2024;15:08;77,593;
24.03.2024;14:53;77,593;
24.03.2024;14:38;77,593;
24.03.2024;14:23;77,593;
24.03.2024;14:08;77,593;
24.03.2024;13:53;77,593;
24.03.2024;13:38;77,593;
24.03.2024;13:23;77,593;
24.03.2024;13:08;77,593;
24.03.2024;12:53;77,593;
24.03.2024;12:38;77,593;
24.03.2024;12:23;77,593;
24.03.2024;12:08;77,593;
24.03.2024;11:53;77,593;
24.03.2024;11:38;77,593;
24.03.2024;11:23;77,593;
24.03.2024;11:08;77,593;
24.03.2024;10:53;77,593;
24.03.2024;10:38;77,593;
24.03.2024;10:23;77,593;
24.03.2024;10:09;77,593;
24.03.2024;09:53;77,593;
24.03.2024;09:38;77,593;
24.03.2024;09:23;77,593;
24.03.2024;09:08;77,593;
24.03.2024;08:53;77,593;
24.03.2024;08:38;77,593;
24.03.2024;08:23;77,593;
24.03.2024;08:08;77,593;
24.03.2024;07:53;77,593;
24.03.2024;07:38;77,593;
24.03.2024;07:23;77,593;
24.03.2024;07:08;77,593;
24.03.2024;06:53;77,594;
24.03.2024;06:38;77,593;
24.03.2024;06:23;77,593;
24.03.2024;06:08;77,594;
24.03.2024;05:53;77,594;
24.03.2024;05:38;77,595;
24.03.2024;05:23;77,595;
24.03.2024;05:08;77,595;
24.03.2024;04:53;77,595;
24.03.2024;04:38;77,595;
24.03.2024;04:23;77,595;
24.03.2024;04:09;77,595;
24.03.2024;03:53;77,595;
24.03.2024;03:38;77,595;
24.03.2024;03:23;77,595;
24.03.2024;03:08;77,596;
24.03.2024;02:53;77,596;
24.03.2024;02:38;77,597;
24.03.2024;02:23;77,597;
24.03.2024;02:08;77,597;
24.03.2024;01:53;77,597;
24.03.2024;01:38;77,596;
24.03.2024;01:23;77,596;
24.03.2024;01:08;77,597;
24.03.2024;00:53;77,596;
24.03.2024;00:38;77,595;
24.03.2024;00:23;77,595;
24.03.2024;00:08;77,595;
23.03.2024;23:53;77,595;
23.03.2024;23:38;77,595;
23.03.2024;23:23;77,595;
23.03.2024;23:08;77,595;
23.03.2024;22:53;77,595;
23.03.2024;22:38;77,595;
23.03.2024;22:23;77,595;
23.03.2024;22:09;77,595;
23.03.2024;21:53;77,595;
23.03.2024;21:38;77,595;
23.03.2024;21:23;77,595;
23.03.2024;21:08;77,595;
23.03.2024;20:53;77,595;
23.03.2024;20:38;77,595;
23.03.2024;20:23;77,595;
23.03.2024;20:08;77,595;
23.03.2024;19:53;77,595;
23.03.2024;19:38;77,595;
23.03.2024;19:23;77,597;
23.03.2024;19:08;77,596;
23.03.2024;18:53;77,597;
23.03.2024;18:38;77,597;
23.03.2024;18:23;77,597;
23.03.2024;18:08;77,597;
23.03.2024;17:53;77,595;
23.03.2024;17:38;77,595;
23.03.2024;17:23;77,595;
23.03.2024;17:08;77,595;
23.03.2024;16:53;77,595;
23.03.2024;16:38;77,594;
23.03.2024;16:23;77,595;
23.03.2024;16:09;77,594;
23.03.2024;15:53;77,594;
23.03.2024;15:38;77,594;
23.03.2024;15:23;77,594;
23.03.2024;15:08;77,594;
23.03.2024;14:53;77,595;
23.03.2024;14:38;77,595;
23.03.2024;14:23;77,595;
23.03.2024;14:08;77,595;
23.03.2024;13:53;77,595;
23.03.2024;13:38;77,596;
23.03.2024;13:23;77,596;
23.03.2024;13:08;77,595;
23.03.2024;12:53;77,595;
23.03.2024;12:38;77,595;
23.03.2024;12:23;77,596;
23.03.2024;12:08;77,596;
23.03.2024;11:53;77,596;
23.03.2024;11:38;77,596;
23.03.2024;11:23;77,597;
23.03.2024;11:08;77,597;
23.03.2024;10:53;77,597;
23.03.2024;10:38;77,597;
23.03.2024;10:23;77,597;
23.03.2024;10:09;77,597;
23.03.2024;09:53;77,597;
23.03.2024;09:38;77,597;
23.03.2024;09:23;77,597;
23.03.2024;09:08;77,597;
23.03.2024;08:53;77,598;
23.03.2024;08:38;77,598;
23.03.2024;08:23;77,598;
23.03.2024;08:08;77,599;
23.03.2024;07:53;77,600;
23.03.2024;07:38;77,600;
23.03.2024;07:23;77,600;
23.03.2024;07:08;77,600;
23.03.2024;06:53;77,601;
23.03.2024;06:38;77,601;
23.03.2024;06:23;77,601;
23.03.2024;06:08;77,602;
23.03.2024;05:53;77,602;
23.03.2024;05:38;77,602;
23.03.2024;05:23;77,602;
23.03.2024;05:08;77,603;
23.03.2024;04:53;77,603;
23.03.2024;04:38;77,603;
23.03.2024;04:23;77,603;
23.03.2024;04:08;77,603;
23.03.2024;03:53;77,603;
23.03.2024;03:38;77,603;
23.03.2024;03:23;77,603;
23.03.2024;03:08;77,603;
23.03.2024;02:53;77,604;
23.03.2024;02:38;77,604;
23.03.2024;02:23;77,604;
23.03.2024;02:08;77,605;
23.03.2024;01:53;77,605;
23.03.2024;01:38;77,605;
23.03.2024;01:23;77,605;
23.03.2024;01:08;77,605;
23.03.2024;00:53;77,605;
23.03.2024;00:38;77,605;
23.03.2024;00:23;77,605;
23.03.2024;00:08;77,605;
22.03.2024;23:53;77,605;
22.03.2024;23:38;77,606;
22.03.2024;23:23;77,606;
22.03.2024;23:08;77,606;
22.03.2024;22:53;77,606;
22.03.2024;22:38;77,606;
22.03.2024;22:23;77,606;
22.03.2024;22:08;77,607;
22.03.2024;21:53;77,607;
22.03.2024;21:38;77,607;
22.03.2024;21:23;77,607;
22.03.2024;21:08;77,608;
22.03.2024;20:53;77,608;
22.03.2024;20:38;77,608;
22.03.2024;20:23;77,608;
22.03.2024;20:08;77,608;
22.03.2024;19:53;77,608;
22.03.2024;19:38;77,608;
22.03.2024;19:23;77,608;
22.03.2024;19:08;77,609;
22.03.2024;18:53;77,608;
22.03.2024;18:38;77,608;
22.03.2024;18:23;77,609;
22.03.2024;18:08;77,608;
22.03.2024;17:53;77,609;
22.03.2024;17:38;77,609;
22.03.2024;17:23;77,609;
22.03.2024;17:08;77,608;
22.03.2024;16:53;77,608;
22.03.2024;16:38;77,608;
22.03.2024;16:23;77,609;
22.03.2024;16:08;77,609;
22.03.2024;15:53;77,609;
22.03.2024;15:38;77,609;
22.03.2024;15:23;77,609;
22.03.2024;15:08;77,609;
22.03.2024;14:53;77,608;
22.03.2024;14:38;77,608;
22.03.2024;14:23;77,608;
22.03.2024;14:08;77,608;
22.03.2024;13:53;77,608;
22.03.2024;13:38;77,607;
22.03.2024;13:23;77,607;
22.03.2024;13:08;77,607;
22.03.2024;12:53;77,607;
22.03.2024;12:38;77,608;
22.03.2024;12:23;77,607;
22.03.2024;12:08;77,607;
22.03.2024;11:53;77,607;
22.03.2024;11:38;77,607;
22.03.2024;11:23;77,607;
22.03.2024;11:08;77,607;
22.03.2024;10:53;77,607;
22.03.2024;10:38;77,606;
22.03.2024;10:23;77,607;
22.03.2024;10:08;77,607;
22.03.2024;10:01;77,606;
22.03.2024;09:46;77,607;
22.03.2024;09:31;77,606;
22.03.2024;09:16;77,607;
22.03.2024;09:01;77,607;
22.03.2024;08:46;77,607;
22.03.2024;08:31;77,607;
22.03.2024;08:16;77,607;
22.03.2024;08:01;77,607;
22.03.2024;07:46;77,608;
22.03.2024;07:31;77,608;
22.03.2024;07:16;77,608;
22.03.2024;07:01;77,608;
22.03.2024;06:46;77,608;
22.03.2024;06:31;77,609;
22.03.2024;06:16;77,609;
22.03.2024;06:01;77,609;
22.03.2024;05:46;77,608;
22.03.2024;05:31;77,608;
22.03.2024;05:16;77,608;
22.03.2024;05:01;77,609;
22.03.2024;04:46;77,609;
22.03.2024;04:31;77,609;
22.03.2024;04:16;77,609;
22.03.2024;04:01;77,609;
22.03.2024;03:46;77,609;
22.03.2024;03:31;77,609;
22.03.2024;03:16;77,609;
22.03.2024;03:01;77,609;
22.03.2024;02:46;77,609;
22.03.2024;02:31;77,609;
22.03.2024;02:16;77,609;
22.03.2024;02:01;77,609;
22.03.2024;01:46;77,610;
22.03.2024;01:31;77,610;
22.03.2024;01:16;77,609;
22.03.2024;01:01;77,609;
22.03.2024;00:46;77,609;
22.03.2024;00:31;77,609;
22.03.2024;00:16;77,610;
22.03.2024;00:01;77,610;
21.03.2024;23:46;77,610;
21.03.2024;23:31;77,610;
21.03.2024;23:16;77,610;
21.03.2024;23:01;77,610;
21.03.2024;22:46;77,609;
21.03.2024;22:31;77,609;
21.03.2024;22:16;77,610;
21.03.2024;22:01;77,610;
21.03.2024;21:46;77,611;
21.03.2024;21:31;77,611;
21.03.2024;21:16;77,611;
21.03.2024;21:01;77,611;
21.03.2024;20:46;77,611;
21.03.2024;20:31;77,611;
21.03.2024;20:16;77,611;
21.03.2024;20:01;77,611;
21.03.2024;19:46;77,611;
21.03.2024;19:31;77,611;
21.03.2024;19:16;77,612;
21.03.2024;19:01;77,612;
21.03.2024;18:46;77,612;
21.03.2024;18:31;77,612;
21.03.2024;18:16;77,612;
21.03.2024;18:01;77,612;
21.03.2024;17:46;77,613;
21.03.2024;17:31;77,613;
21.03.2024;17:16;77,612;
21.03.2024;17:01;77,612;
21.03.2024;16:46;77,613;
21.03.2024;16:31;77,613;
21.03.2024;16:16;77,613;
21.03.2024;16:01;77,613;
21.03.2024;15:46;77,614;
21.03.2024;15:31;77,614;
21.03.2024;15:16;77,613;
21.03.2024;15:01;77,613;
21.03.2024;14:46;77,614;
21.03.2024;14:31;77,614;
21.03.2024;14:16;77,614;
21.03.2024;14:01;77,614;
21.03.2024;13:46;77,614;
21.03.2024;13:31;77,615;
21.03.2024;13:16;77,615;
21.03.2024;13:01;77,615;
21.03.2024;12:46;77,614;
21.03.2024;12:31;77,615;
21.03.2024;12:16;77,614;
21.03.2024;12:01;77,614;
21.03.2024;11:46;77,614;
21.03.2024;11:31;77,614;
21.03.2024;11:16;77,615;
21.03.2024;11:01;77,615;
21.03.2024;10:46;77,615;
21.03.2024;10:31;77,615;
21.03.2024;10:16;77,616;
21.03.2024;10:01;77,616;
21.03.2024;09:46;77,616;
21.03.2024;09:31;77,616;
21.03.2024;09:16;77,616;
21.03.2024;09:01;77,616;
21.03.2024;08:46;77,616;
21.03.2024;08:31;77,616;
21.03.2024;08:16;77,616;
21.03.2024;08:01;77,616;
21.03.2024;07:46;77,616;
21.03.2024;07:31;77,616;
21.03.2024;07:16;77,616;
21.03.2024;07:01;77,616;
21.03.2024;06:46;77,617;
21.03.2024;06:31;77,617;
21.03.2024;06:16;77,617;
21.03.2024;06:01;77,617;
21.03.2024;05:46;77,617;
21.03.2024;05:31;77,617;
21.03.2024;05:16;77,617;
21.03.2024;05:01;77,617;
21.03.2024;04:46;77,618;
21.03.2024;04:31;77,618;
21.03.2024;04:16;77,618;
21.03.2024;04:01;77,618;
21.03.2024;03:46;77,617;
21.03.2024;03:31;77,617;
21.03.2024;03:16;77,618;
21.03.2024;03:01;77,618;
21.03.2024;02:46;77,618;
21.03.2024;02:31;77,618;
21.03.2024;02:16;77,618;
21.03.2024;02:01;77,618;
21.03.2024;01:46;77,618;
21.03.2024;01:31;77,618;
21.03.2024;01:16;77,618;
21.03.2024;01:01;77,618;
21.03.2024;00:46;77,618;
21.03.2024;00:31;77,618;
21.03.2024;00:16;77,618;
21.03.2024;00:01;77,618;
20.03.2024;23:46;77,617;
20.03.2024;23:31;77,617;
20.03.2024;23:16;77,616;
20.03.2024;23:01;77,616;
20.03.2024;22:46;77,616;
20.03.2024;22:31;77,616;
20.03.2024;22:16;77,616;
20.03.2024;22:01;77,616;
20.03.2024;21:46;77,616;
20.03.2024;21:31;77,616;
20.03.2024;21:16;77,616;
20.03.2024;21:01;77,616;
20.03.2024;20:46;77,616;
20.03.2024;20:31;77,617;
20.03.2024;20:16;77,617;
20.03.2024;20:01;77,617;
20.03.2024;19:46;77,618;
20.03.2024;19:31;77,618;
20.03.2024;19:16;77,618;
20.03.2024;19:01;77,618;
20.03.2024;18:46;77,618;
20.03.2024;18:31;77,618;
20.03.2024;18:16;77,618;
20.03.2024;18:01;77,618;
20.03.2024;17:46;77,618;
20.03.2024;17:31;77,618;
20.03.2024;17:16;77,618;
20.03.2024;17:01;77,618;
20.03.2024;16:46;77,618;
20.03.2024;16:31;77,618;
20.03.2024;16:16;77,618;
20.03.2024;16:01;77,618;
20.03.2024;15:46;77,618;
20.03.2024;15:31;77,618;
20.03.2024;15:16;77,618;
20.03.2024;15:01;77,619;
20.03.2024;14:46;77,619;
20.03.2024;14:31;77,620;
20.03.2024;14:16;77,620;
20.03.2024;14:01;77,620;
20.03.2024;13:46;77,620;
20.03.2024;13:31;77,620;
20.03.2024;13:16;77,620;
20.03.2024;13:01;77,620;
20.03.2024;12:46;77,620;
20.03.2024;12:31;77,620;
20.03.2024;12:16;77,620;
20.03.2024;12:01;77,620;
20.03.2024;11:46;77,620;
20.03.2024;11:31;77,621;
20.03.2024;11:16;77,621;
20.03.2024;11:01;77,621;
20.03.2024;10:46;77,621;
20.03.2024;10:31;77,621;
20.03.2024;10:16;77,622;
20.03.2024;10:01;77,622;
20.03.2024;09:46;77,622;
20.03.2024;09:31;77,623;
20.03.2024;09:16;77,623;
20.03.2024;09:01;77,623;
20.03.2024;08:46;77,623;
20.03.2024;08:31;77,623;
20.03.2024;08:16;77,623;
20.03.2024;08:01;77,623;
20.03.2024;07:46;77,623;
20.03.2024;07:31;77,624;
20.03.2024;07:16;77,624;
20.03.2024;07:01;77,624;
20.03.2024;06:46;77,624;
20.03.2024;06:31;77,624;
20.03.2024;06:16;77,624;
20.03.2024;06:01;77,624;
20.03.2024;05:46;77,624;
20.03.2024;05:31;77,624;
20.03.2024;05:16;77,624;
20.03.2024;05:01;77,624;
20.03.2024;04:46;77,624;
20.03.2024;04:31;77,625;
20.03.2024;04:16;77,625;
20.03.2024;04:01;77,625;
20.03.2024;03:46;77,625;
20.03.2024;03:31;77,625;
20.03.2024;03:16;77,625;
20.03.2024;03:01;77,625;
20.03.2024;02:46;77,625;
20.03.2024;02:31;77,625;
20.03.2024;02:16;77,626;
20.03.2024;02:01;77,626;
20.03.2024;01:46;77,626;
20.03.2024;01:31;77,626;
20.03.2024;01:16;77,626;
20.03.2024;01:01;77,627;
20.03.2024;00:46;77,627;
20.03.2024;00:31;77,627;
20.03.2024;00:16;77,627;
20.03.2024;00:01;77,627;
19.03.2024;23:46;77,627;